TimeCST,TemperatureF,Dew PointF,Humidity,Sea Level PressureIn,VisibilityMPH,Wind Direction,Wind SpeedMPH,Gust SpeedMPH,PrecipitationIn,Events,Conditions,WindDirDegrees,DateUTC
6:00 AM,73.4,73.4,100,29.84,0.2,Calm,Calm,-,N/A,Fog,Fog,0,2011-11-17 12:00:00
7:00 AM,75.2,73.4,94,29.86,0.6,Calm,Calm,-,N/A,,Scattered Clouds,0,2011-11-17 13:00:00
7:10 AM,75.2,73.4,94,29.86,1.6,Calm,Calm,-,N/A,,Scattered Clouds,0,2011-11-17 13:10:00
7:35 AM,78.8,75.2,89,29.87,6.2,Calm,Calm,-,N/A,,Scattered Clouds,0,2011-11-17 13:35:00
8:00 AM,78.8,75.2,89,29.87,6.2,Calm,Calm,-,N/A,,Mostly Cloudy,0,2011-11-17 14:00:00
9:00 AM,81,75,76,29.86,12,WSW,3.5,,,,Scattered Clouds,240,2011-11-17 15:00:00
9:00 AM,80.6,75.2,84,29.89,6.2,WSW,3.5,-,N/A,,Mostly Cloudy,240,2011-11-17 15:00:00
10:00 AM,84.2,73.4,70,29.88,6.2,West,3.5,-,N/A,,Mostly Cloudy,280,2011-11-17 16:00:00
11:00 AM,86.0,73.4,66,29.85,6.2,WSW,6.9,-,N/A,,Mostly Cloudy,250,2011-11-17 17:00:00
12:00 PM,88,74,56,29.82,12,West,8.1,,,,Partly Cloudy,260,2011-11-17 18:00:00
12:00 PM,87.8,75.2,66,29.81,6.2,West,8.1,-,N/A,,Mostly Cloudy,260,2011-11-17 18:00:00
1:00 PM,87.8,73.4,62,29.78,6.2,WSW,5.8,-,N/A,,Mostly Cloudy,250,2011-11-17 19:00:00
2:00 PM,86.0,71.6,62,29.77,6.2,NE,12.7,-,N/A,,Mostly Cloudy,40,2011-11-17 20:00:00
3:00 PM,88,71,47,29.74,12,East,12.7,,,,Overcast,80,2011-11-17 21:00:00
3:00 PM,87.8,69.8,55,29.75,6.2,East,12.7,-,N/A,,Mostly Cloudy,80,2011-11-17 21:00:00
4:00 PM,86.0,69.8,58,29.75,6.2,ENE,11.5,-,N/A,,Mostly Cloudy,60,2011-11-17 22:00:00
5:00 PM,82.4,68.0,62,29.76,6.2,East,12.7,-,N/A,,Scattered Clouds,80,2011-11-17 23:00:00
6:00 PM,81,69,58,29.73,12,East,13.8,,,,Scattered Clouds,100,2011-11-18 00:00:00
6:00 PM,80.6,68.0,65,29.77,6.2,East,13.8,-,N/A,,Mostly Cloudy,100,2011-11-18 00:00:00
7:00 PM,78.8,69.8,74,29.80,6.2,East,8.1,-,N/A,,Mostly Cloudy,90,2011-11-18 01:00:00
8:00 PM,77.0,69.8,78,29.82,6.2,ESE,6.9,-,N/A,,Scattered Clouds,110,2011-11-18 02:00:00